Home > Weather > Saint-Jérôme > Past weeks

Flag for Canada Weather for the Past 2 Weeks in Saint-Jérôme, Quebec, Canada

Now
43 °F

Mostly cloudy.


Feels Like: 41 °F
Forecast: 42 / 48 °F
Wind: 3 mph from North

Location: Montreal / Mirabel

Current Time: May 1, 2016 at 10:25:48 PM

Latest Report: May 1, 2016 at 10:00 PM


Visibility: 10 mi

Pressure: 30.11 "Hg

Humidity: 100%

Dew Point: 43 °F

Location of Saint-JérômeLocation

Historic Weather in Saint-Jérôme — Graph

°F

Saint-Jérôme Temperature Yesterday

Maximum temperature yesterday: 61 °F (at 4:00 PM)
Minimum temperature yesterday: 32 °F (at 6:00 AM)
Average temperature yesterday: 47 °F

High & Low Weather Summary for the Past Weeks

 TemperatureHumidityPressure
High73 °F (Apr 17, 5:00 PM)100% (Apr 18, 8:00 PM)30.50 "Hg (Apr 18, 8:00 PM)
Low27 °F (Apr 27, 6:00 AM)12% (Apr 21, 2:00 PM)29.79 "Hg (Apr 22, 12:00 PM)
Average44 °F44%30.12 "Hg
* Reported Apr 16 9:00 PM — May 1 9:00 PM, Saint-Jérôme, Weather by CustomWeather, © 2016

Note: Actual official high and low records may vary slightly from our data, if they occured in-between our weather recording intervals... More about our weather records

Advertising

Saint-Jérôme Weather History for the Previous 24 Hours

Scroll right to see more
 ConditionsComfort  
Time TempWeatherWind HumidityBarometerVisibility
9:00 PM
Sun, May 1
43 °FLight rain. More clouds than sun.7 mph100%30.11 "Hg8 mi
8:00 PM43 °FLight rain. Fog.5 mph100%30.11 "Hg6 mi
7:00 PM45 °FLight rain. Fog.3 mph87%30.12 "Hg6 mi
6:00 PM45 °FLight rain. Overcast.5 mph87%30.14 "Hg8 mi
5:00 PM46 °FLight rain. Overcast.6 mph82%30.13 "Hg15 mi
4:00 PM48 °FLight rain. Overcast.7 mph71%30.14 "Hg15 mi
3:00 PM50 °FLight rain. Overcast.6 mph67%30.16 "Hg15 mi
2:00 PM50 °FLight rain. Mostly cloudy.8 mph58%30.17 "Hg20 mi
1:00 PM52 °FMostly cloudy.7 mph32%30.19 "Hg20 mi
12:00 PM52 °FOvercast.9 mph28%30.21 "Hg20 mi
11:00 AM50 °FMostly cloudy.8 mph32%30.20 "Hg45 mi
10:00 AM48 °FOvercast.8 mph34%30.20 "Hg45 mi
9:00 AM46 °FMore clouds than sun.9 mph32%30.19 "Hg45 mi
8:00 AM45 °FMore clouds than sun.8 mph37%30.19 "Hg45 mi
7:00 AM41 °FMostly cloudy.2 mph42%30.21 "Hg45 mi
6:00 AM39 °FPartly cloudy.3 mph45%30.20 "Hg45 mi
5:00 AM41 °FPartly cloudy.2 mph39%30.20 "Hg25 mi
4:00 AM41 °FPartly cloudy.5 mph36%30.22 "Hg25 mi
3:00 AM41 °FPartly cloudy.No wind36%30.22 "Hg25 mi
2:00 AM43 °FPassing clouds.No wind36%30.23 "Hg25 mi
1:00 AM43 °FPassing clouds.No wind39%30.22 "Hg25 mi
12:00 AM43 °FPassing clouds.No wind42%30.22 "Hg25 mi
11:00 PM
Sat, Apr 30
46 °FPassing clouds.5 mph34%30.23 "Hg25 mi
10:00 PM48 °FPassing clouds.3 mph32%30.24 "Hg25 mi
Weather by CustomWeather, © 2016

See weather overviewHow to use our weather pages